Weather History for Rafha, Saudi Arabia

Change the Weather History Date:

Thursday, February 14, 2013

  Actual Average Record
Temperature  
Mean Temperature 52 °F -  
Max Temperature 65 °F 68 °F 80 °F (2009)
Min Temperature 40 °F 46 °F 37 °F (1997)
Degree Days  
Heating Degree Days 12    
Growing Degree Days 2 (Base 50)    
Moisture  
Dew Point 35 °F    
Average Humidity 50    
Maximum Humidity 81    
Minimum Humidity 21    
Precipitation  
Precipitation 0.00 in - - ()
Sea Level Pressure  
Sea Level Pressure 30.15 in    
Wind  
Wind Speed 2 mph ()    
Max Wind Speed 10 mph    
Max Gust Speed -    
Visibility 6.0 miles    
Events      
Averages and records for this station are not official NWS values.
T = Trace of Precipitation, MM = Missing Value Source: Averaged Metar Reports

Daily Weather History Graph

Daily Weather History Graph

Search for Another Location

Airport:

Trip Planner

Search our weather history database for the weather conditions in past years. The results will help you decide how hot, cold, wet, or windy it might be!

Date:

Astronomy

Feb. 14, 2013 Rise Set
Actual Time 6:46 AM AST 5:54 PM AST
Civil Twilight 6:22 AM AST 6:18 PM AST
Nautical Twilight 5:53 AM AST 6:46 PM AST
Astronomical Twilight 5:26 AM AST 7:14 PM AST
Moon 8:59 AM AST (2/14) 10:08 PM AST (2/14)
Length of Visible Light 11h 56m
Length of Day
11h 08m
Waxing Crescent, 18% of the Moon is Illuminated
Feb 14
Waxing Crescent
Feb 17
First Quarter
Feb 25
Full
Mar 5
Last Quarter
Mar 11
New

Hourly Weather History & Observations

Time (AST) Temp. Dew Point Humidity Pressure Visibility Wind Dir Wind Speed Gust Speed Precip Events Conditions
12:00 AM 50 °F 36 °F 46% 30.18 in 6 mi Calm Calm - -  
12:00 AM 50.0 °F 35.6 °F 58% 30.18 in - Calm Calm - N/A   Clear
1:00 AM 46.4 °F 35.6 °F 66% 30.18 in - Calm Calm - N/A   Clear
2:00 AM 46.4 °F 35.6 °F 66% 30.18 in - Calm Calm - N/A   Clear
3:00 AM 45 °F 36 °F 60% 30.17 in 6 mi Calm Calm - -  
3:00 AM 44.6 °F 35.6 °F 71% 30.18 in - Calm Calm - N/A   Clear
4:00 AM 42.8 °F 35.6 °F 76% 30.15 in - Calm Calm - N/A   Clear
5:00 AM 42.8 °F 35.6 °F 76% 30.18 in - Calm Calm - N/A   Clear
6:00 AM 41 °F 36 °F 74% 30.19 in 6 mi Calm Calm - -  
6:00 AM 41.0 °F 35.6 °F 81% 30.18 in - Calm Calm - N/A   Clear
7:00 AM 41.0 °F 35.6 °F 81% 30.18 in - Calm Calm - N/A   Clear
8:00 AM 41.0 °F 35.6 °F 81% 30.18 in - Calm Calm - N/A   Clear
9:00 AM 53 °F 39 °F 48% 30.19 in 6 mi SSE 3.5 mph - -  
9:00 AM 53.6 °F 39.2 °F 58% 30.18 in - SSE 3.5 mph - N/A   Clear
10:00 AM 57.2 °F 37.4 °F 48% 30.18 in - ESE 4.6 mph - N/A   Clear
11:00 AM 59.0 °F 35.6 °F 42% 30.18 in - NE 4.6 mph - N/A   Clear
12:00 PM 61 °F 36 °F 27% 30.17 in 6 mi South 2.3 mph - -  
12:00 PM 60.8 °F 35.6 °F 39% 30.18 in - South 2.3 mph - N/A   Clear
1:00 PM 62.6 °F 35.6 °F 37% 30.15 in - ESE 3.5 mph - N/A   Clear
2:00 PM 62.6 °F 35.6 °F 37% 30.12 in - SE 4.6 mph - N/A   Clear
3:00 PM 64 °F 34 °F 21% 30.14 in 6 mi South 3.5 mph - -  
3:00 PM 64.4 °F 33.8 °F 32% 30.15 in - South 3.5 mph - N/A   Clear
4:00 PM 64.4 °F 33.8 °F 32% 30.12 in - NNE 1.2 mph - N/A   Clear
5:00 PM 64.4 °F 33.8 °F 32% 30.12 in - East 4.6 mph - N/A   Clear
6:00 PM 62 °F 34 °F 23% 30.09 in 6 mi East 8.1 mph - -   Clear
6:00 PM 62.6 °F 33.8 °F 34% 30.09 in - East 8.1 mph - N/A   Clear
7:00 PM 60.8 °F 33.8 °F 36% 30.06 in - East 10.4 mph - N/A   Clear
9:00 PM 58 °F 34 °F 28% 30.12 in 6 mi ESE 8.1 mph - -   Partly Cloudy
9:00 PM 57.2 °F 33.8 °F 41% 30.09 in - ESE 8.1 mph - N/A   Clear
10:00 PM 55.4 °F 33.8 °F 44% 30.09 in - SE 8.1 mph - N/A   Clear
11:00 PM 55.4 °F 32.0 °F 41% 30.09 in - ESE 8.1 mph - N/A   Clear